"Pseudo-MPEC" for P11JSie

Created 2023 Sep 25 11:22:18 UT using Find_Orb

Click here for an explanation of pseudo-MPECs

 
 Astrometry: 
     P11JSie* C2023 09 18T]($V^`e\-vrYShj)2*SuGD(kboMdowrRYv.q6tTxJW#o!`[_m0,F51
     P11JSie  C2023 09 18l8QTa%rWVj/5Ar`1F:/pA@Mju3%Z'5@sNr'iwF-D0B?\\+(w:Rr[F51
     P11JSie  C2023 09 18%VlAks01F8)((Z\(g8ctF+VwE.oZ31k,\SAstrometrypGT/Q\keF51
     P11JSie  C2023 09 18sSxfx`]=9]%.qmsbMYxPF49Qp*hWogCf?^(WUB:redacted;ZPeMF51
     P11JSie  C2023 09 18$N][gLIWtdtbBC)e/#I8Z$4N9mfBuAZVG(%(`yl44WEg#Y6\mue2F52
     P11JSie  C2023 09 18;.-6B/lilrKRKfgclickRCg,di0wljDAVV\s`M?)?kUK=Mk^%iK2F52
     P11JSie KC2023 09 19.22603623 21 17.827-05 51 05.83   ~9J5q 22.37GVNEOCPV06
     P11JSie KC2023 09 19.23045423 21 18.662-05 51 12.20   ~9J5q 21.82GVNEOCPV06
     P11JSie KC2023 09 19.23266023 21 19.080-05 51 15.34   ~9J5q 21.96GVNEOCPV06
     P11JSie KC2023 09 20S;vQuBu?chere+PEInrcu8Go)V@)f_.U0t.%J9l5@U@JUDforrMaH21
     P11JSie KC2023 09 20m?b#]#GI0X'^f,/-Uexplanationo'1i+@g#G)JgkgD0$!1'u_E4H21
     P11JSie 1C2023 09 24K+C+lxTMcDX)e5Qn`r`MJ+q5251q4EvtB\ft6:84LuTHxb)n2hfUT12
     P11JSie 1C2023 09 243qj2GT)*(tx@b%AB?wu'ZCnH/pH?]scot'#$e_RdnCv1drP;m1OkT12
     P11JSie 1C2023 09 24%wTOys2L\[F=8$)xVGXKjT6.@INQR?1Os:(m'T)bGUY*SiQenAs*T12

Station data:
(F51) Pan-STARRS 1, Haleakala  (N20.707234 W156.255910)  US/Hawaii.
   Observers J. Bulger, T. Lowe, A. Schultz, M. Willman. Measurers K.
   Chambers, S. Chastel, T. de Boer, L. Denneau, J. Fairlamb, H. Flewelling,
   M. Huber, C.-C. Lin, E. Magnier, Y. Ramanjooloo, R. Wainscoat, R. Weryk.
   1.8-m Ritchey-Chrétien + CCD.
(F52) Pan-STARRS 2, Haleakala  (N20.707382 W156.255910)  US/Hawaii.
   Observers J. Bulger, T. Dukes, T. Lowe, A. Schultz, M. Willman. Measurers
   K. Chambers, S. Chastel, T. de Boer, L. Denneau, J. Fairlamb, H.
   Flewelling, M. Huber, C.-C. Lin, E. Magnier, Y. Ramanjooloo, R. Wainscoat,
   R. Weryk. 1.8-m Ritchey-Chrétien + CCD.
(H21) Astronomical Research Observatory, Westfield  (N39.483054 W87.968270)
   US/Illinois.  Observer R. Holmes. Measurers S. Foglia, L. Buzzi, T.
   Linder, R. Holmes. 0.76-m f/3.0 astrograph + CCD0.81-m f/4.0 astrograph +
   CCD0.61-m f/4.5 astrograph + CCD0.40-m f/5.32 astrograph + CCD.
(T12) Mauna Kea-UH/Tholen NEO Follow-Up (2.24-m)  (N19.822991 W155.469434)
   US/Hawaii.  Observer R. Weryk. 2.24-m f/10.1 University of Hawaii
   reflector.
(V06) Catalina Sky Survey-Kuiper  (N32.416844 W110.732550)  US/Arizona.
   Observers T. A. Pruyne, B. M. Africano, E. J. Christensen, G. A. Farneth,
   D. C. Fuls, A. R. Gibbs, A. D. Grauer, H. Gröller, J. A. Johnson, R. A.
   Kowalski, S. M. Larson, G. J. Leonard, D. Rankin, R. L. Seaman, F. C.
   Shelly, K. W. Wierzchoś. 1.55-m reflector + CCD.

Orbital elements:  P11JSie
   Perihelion 2023 Sep 29.46559 +/- 0.0246 TT = 11:10:26 (JD 2460216.96559)
Epoch 2023 Sep 24.0 TT = JDT 2460211.5   Earth MOID: 0.1827      AutoNEOCP
M 358.57540317 +/- 0.023            (J2000 ecliptic)
n   0.26064836 +/- 0.00359          Peri.  191.67753 +/- 0.024
a   2.42716546 +/- 0.0223           Node   172.56488 +/- 0.0054
e   0.5120147 +/- 0.00399           Incl.    6.66500 +/- 0.038
P   3.78                   H 24.86  G  0.15   U  9.0
q 1.18442097 +/- 0.00121    Q 3.66990995 +/- 0.0434
From 14 observations 2023 Sept. 18-24; mean residual 0".18
Residuals in arcseconds: 
230918 F51  .00   .04+    230918 F52  .42-  .19+    230920 H21  .05+  .33+    
230918 F51  .04+  .03-    230919 V06  .26+  .16+    230924 T12  .09+  .05-    
230918 F51  .06-  .07+    230919 V06  .27+  .08+    230924 T12  .11-  .04+    
230918 F51  .13+  .07-    230919 V06  .29+  .07+    230924 T12  .01+  .00     
230918 F52  .23+  .30-    230920 H21  .07-  .28+    

Ephemerides (geocentric):
Date (UTC) HH   RA             Dec           delta  r     elong  mag " sig PA
---- --------  ------------   ------------  ------ ------ -----  --- --------
2023 09 25 11  23 43 12.759   -08 13 00.91  .18501 1.1853 169.3 22.2 .317  26
2023 09 25 12  23 43 21.763   -08 13 55.14  .18502 1.1853 169.3 22.2 .325  26
2023 09 25 13  23 43 30.768   -08 14 49.31  .18503 1.1853 169.3 22.2 .333  26
2023 09 25 14  23 43 39.775   -08 15 43.43  .18503 1.1852 169.3 22.2 .341  27
2023 09 25 15  23 43 48.784   -08 16 37.49  .18504 1.1852 169.2 22.2 .350  27
2023 09 25 16  23 43 57.794   -08 17 31.51  .18505 1.1852 169.2 22.2 .358  27
2023 09 25 17  23 44 06.806   -08 18 25.46  .18506 1.1852 169.2 22.2 .367  27
2023 09 25 18  23 44 15.819   -08 19 19.37  .18507 1.1852 169.1 22.2 .375  27
2023 09 25 19  23 44 24.834   -08 20 13.22  .18508 1.1851 169.1 22.2 .384  28
2023 09 25 20  23 44 33.851   -08 21 07.01  .18509 1.1851 169.1 22.2 .393  28
2023 09 25 21  23 44 42.868   -08 22 00.75  .18510 1.1851 169.1 22.2 .402  28
2023 09 25 22  23 44 51.888   -08 22 54.44  .18511 1.1851 169.0 22.2 .411  28
2023 09 25 23  23 45 00.908   -08 23 48.07  .18512 1.1851 169.0 22.2 .420  28
2023 09 26 00  23 45 09.930   -08 24 41.64  .18513 1.1851 169.0 22.2 .429  28
2023 09 26 01  23 45 18.954   -08 25 35.16  .18514 1.1851 169.0 22.2 .438  28
2023 09 26 02  23 45 27.978   -08 26 28.62  .18515 1.1850 168.9 22.2 .448  29
2023 09 26 03  23 45 37.004   -08 27 22.03  .18516 1.1850 168.9 22.2 .457  29
2023 09 26 04  23 45 46.032   -08 28 15.38  .18517 1.1850 168.9 22.2 .466  29
2023 09 26 05  23 45 55.060   -08 29 08.67  .18518 1.1850 168.9 22.2 .476  29
2023 09 26 06  23 46 04.090   -08 30 01.90  .18519 1.1850 168.8 22.2 .486  29
2023 09 26 07  23 46 13.122   -08 30 55.08  .18520 1.1850 168.8 22.2 .496  29
2023 09 26 08  23 46 22.154   -08 31 48.20  .18521 1.1850 168.8 22.2 .505  29
2023 09 26 09  23 46 31.187   -08 32 41.26  .18523 1.1849 168.8 22.2 .515  29
2023 09 26 10  23 46 40.222   -08 33 34.27  .18524 1.1849 168.7 22.2 .525  29
2023 09 26 11  23 46 49.258   -08 34 27.21  .18525 1.1849 168.7 22.2 .536  29
2023 09 26 12  23 46 58.295   -08 35 20.10  .18526 1.1849 168.7 22.2 .546  29
2023 09 26 13  23 47 07.333   -08 36 12.93  .18528 1.1849 168.6 22.2 .556  29
2023 09 26 14  23 47 16.372   -08 37 05.70  .18529 1.1849 168.6 22.2 .567  29
2023 09 26 15  23 47 25.412   -08 37 58.40  .18530 1.1849 168.6 22.2 .577  29
2023 09 26 16  23 47 34.453   -08 38 51.05  .18532 1.1848 168.6 22.2 .588  29
2023 09 26 17  23 47 43.495   -08 39 43.64  .18533 1.1848 168.5 22.2 .598  29
2023 09 26 18  23 47 52.538   -08 40 36.17  .18535 1.1848 168.5 22.2 .609  29
2023 09 26 19  23 48 01.582   -08 41 28.64  .18536 1.1848 168.5 22.2 .620  29
2023 09 26 20  23 48 10.627   -08 42 21.05  .18538 1.1848 168.5 22.2 .631  29
2023 09 26 21  23 48 19.673   -08 43 13.40  .18539 1.1848 168.4 22.2 .642  29
2023 09 26 22  23 48 28.720   -08 44 05.69  .18541 1.1848 168.4 22.2 .653  29
2023 09 26 23  23 48 37.767   -08 44 57.91  .18542 1.1848 168.4 22.2 .664  29
2023 09 27 00  23 48 46.816   -08 45 50.07  .18544 1.1847 168.4 22.2 .675  29
2023 09 27 01  23 48 55.865   -08 46 42.18  .18545 1.1847 168.3 22.2 .686  29
2023 09 27 02  23 49 04.915   -08 47 34.22  .18547 1.1847 168.3 22.2 .698  29
2023 09 27 03  23 49 13.966   -08 48 26.19  .18549 1.1847 168.3 22.2 .709  29
2023 09 27 04  23 49 23.017   -08 49 18.11  .18550 1.1847 168.3 22.2 .721  29
2023 09 27 05  23 49 32.069   -08 50 09.96  .18552 1.1847 168.2 22.2 .733  29
2023 09 27 06  23 49 41.122   -08 51 01.75  .18554 1.1847 168.2 22.2 .744  29
2023 09 27 07  23 49 50.176   -08 51 53.48  .18555 1.1847 168.2 22.2 .756  29
2023 09 27 08  23 49 59.230   -08 52 45.14  .18557 1.1847 168.1 22.2 .768  29
2023 09 27 09  23 50 08.285   -08 53 36.74  .18559 1.1847 168.1 22.2 .780  29
2023 09 27 10  23 50 17.340   -08 54 28.27  .18561 1.1846 168.1 22.2 .792  29